Time,TemperatureF,DewpointF,PressureIn,WindDirection,WindDirectionDegrees,WindSpeedMPH,WindSpeedGustMPH,Humidity,HourlyPrecipIn,Conditions,Clouds,dailyrainin,SoftwareType,DateUTC
2013-03-02 00:03:00,14.7,9.4,29.44,NNW,338,0.0,0.0,79,0.00,,---,0.00,VWS V13.01,2013-03-02 06:03:00,
2013-03-02 00:08:00,14.5,9.2,29.44,NNE,22,0.0,0.0,79,0.00,,---,0.00,VWS V13.01,2013-03-02 06:08:00,
2013-03-02 00:13:00,14.3,9.0,29.44,North,0,0.0,2.2,79,0.00,,---,0.00,VWS V13.01,2013-03-02 06:13:00,
2013-03-02 00:18:00,14.3,9.0,29.44,NNE,22,0.0,0.0,79,0.00,,---,0.00,VWS V13.01,2013-03-02 06:18:00,
2013-03-02 00:23:00,14.1,8.8,29.44,NNE,22,0.0,0.0,79,0.00,,---,0.00,VWS V13.01,2013-03-02 06:23:00,
2013-03-02 00:28:00,14.1,8.8,29.44,North,0,0.0,0.0,79,0.00,,---,0.00,VWS V13.01,2013-03-02 06:28:00,
2013-03-02 00:33:00,14.1,8.8,29.44,North,0,0.0,0.0,79,0.00,,---,0.00,VWS V13.01,2013-03-02 06:33:00,
2013-03-02 00:38:00,14.1,8.8,29.44,North,0,0.0,0.0,79,0.00,,---,0.00,VWS V13.01,2013-03-02 06:38:00,
2013-03-02 00:43:00,13.8,8.5,29.45,North,0,0.0,0.0,79,0.00,,---,0.00,VWS V13.01,2013-03-02 06:43:00,
2013-03-02 00:48:00,13.8,8.5,29.44,NNE,22,0.0,0.0,79,0.00,,---,0.00,VWS V13.01,2013-03-02 06:48:00,
2013-03-02 00:53:00,13.6,8.3,29.44,NNE,22,0.0,0.0,79,0.00,,---,0.00,VWS V13.01,2013-03-02 06:53:00,
2013-03-02 00:58:00,13.6,8.3,29.44,NNW,338,0.0,0.0,79,0.00,,---,0.00,VWS V13.01,2013-03-02 06:58:00,
2013-03-02 01:03:00,13.6,8.3,29.45,North,0,0.0,0.0,79,0.00,,---,0.00,VWS V13.01,2013-03-02 07:03:00,
2013-03-02 01:08:00,13.2,7.9,29.44,NNW,338,0.0,0.0,79,0.00,,---,0.00,VWS V13.01,2013-03-02 07:08:00,
2013-03-02 01:13:00,13.2,7.9,29.44,NNW,338,0.0,0.0,79,0.00,,---,0.00,VWS V13.01,2013-03-02 07:13:00,
2013-03-02 01:18:00,13.1,7.8,29.44,NNW,338,0.0,0.0,79,0.00,,---,0.00,VWS V13.01,2013-03-02 07:18:00,
2013-03-02 01:23:00,12.9,7.6,29.44,NNW,338,0.0,0.0,79,0.00,,---,0.00,VWS V13.01,2013-03-02 07:23:00,
2013-03-02 01:28:00,12.7,7.4,29.44,NNW,338,0.0,0.0,79,0.00,,---,0.00,VWS V13.01,2013-03-02 07:28:00,
2013-03-02 01:33:00,12.7,7.4,29.44,NNW,338,0.0,0.0,79,0.00,,---,0.00,VWS V13.01,2013-03-02 07:33:00,
2013-03-02 01:38:00,12.7,7.4,29.44,North,0,3.4,3.4,79,0.00,,---,0.00,VWS V13.01,2013-03-02 07:38:00,
2013-03-02 01:43:00,12.5,7.5,29.44,North,0,0.0,0.0,80,0.00,,---,0.00,VWS V13.01,2013-03-02 07:43:00,
2013-03-02 01:48:00,12.5,7.5,29.43,North,0,0.0,0.0,80,0.00,,---,0.00,VWS V13.01,2013-03-02 07:48:00,
2013-03-02 01:53:00,12.3,7.3,29.43,North,0,0.0,0.0,80,0.00,,---,0.00,VWS V13.01,2013-03-02 07:53:00,
2013-03-02 01:58:00,12.3,7.3,29.43,North,0,0.0,0.0,80,0.00,,---,0.00,VWS V13.01,2013-03-02 07:58:00,
2013-03-02 02:03:00,12.2,7.2,29.43,North,0,0.0,0.0,80,0.00,,---,0.00,VWS V13.01,2013-03-02 08:03:00,
2013-03-02 02:08:00,12.0,7.0,29.44,North,0,0.0,0.0,80,0.00,,---,0.00,VWS V13.01,2013-03-02 08:08:00,
2013-03-02 02:13:00,11.8,6.8,29.43,North,0,0.0,0.0,80,0.00,,---,0.00,VWS V13.01,2013-03-02 08:13:00,
2013-03-02 02:18:00,11.6,6.6,29.43,North,0,0.0,0.0,80,0.00,,---,0.00,VWS V13.01,2013-03-02 08:18:00,
2013-03-02 02:23:00,11.4,6.4,29.43,North,0,0.0,0.0,80,0.00,,---,0.00,VWS V13.01,2013-03-02 08:23:00,
2013-03-02 02:28:00,11.4,6.4,29.43,NNE,22,0.0,0.0,80,0.00,,---,0.00,VWS V13.01,2013-03-02 08:28:00,
2013-03-02 02:33:00,11.3,6.3,29.43,NNE,22,0.0,0.0,80,0.00,,---,0.00,VWS V13.01,2013-03-02 08:33:00,
2013-03-02 02:38:00,11.3,6.3,29.43,NNE,22,0.0,0.0,80,0.00,,---,0.00,VWS V13.01,2013-03-02 08:38:00,
2013-03-02 02:43:00,11.1,6.2,29.43,NNE,22,0.0,0.0,80,0.00,,---,0.00,VWS V13.01,2013-03-02 08:43:00,
2013-03-02 02:48:00,11.1,6.2,29.42,North,0,0.0,0.0,80,0.00,,---,0.00,VWS V13.01,2013-03-02 08:48:00,
2013-03-02 02:53:00,11.1,6.2,29.42,North,0,0.0,0.0,80,0.00,,---,0.00,VWS V13.01,2013-03-02 08:53:00,
2013-03-02 02:58:00,10.9,5.9,29.43,NNE,22,0.0,0.0,80,0.00,,---,0.00,VWS V13.01,2013-03-02 08:58:00,
2013-03-02 03:03:00,10.9,5.9,29.43,NNW,338,0.0,0.0,80,0.00,,---,0.00,VWS V13.01,2013-03-02 09:03:00,
2013-03-02 03:08:00,10.9,5.9,29.43,North,0,0.0,0.0,80,0.00,,---,0.00,VWS V13.01,2013-03-02 09:08:00,
2013-03-02 03:13:00,10.9,5.9,29.43,North,0,0.0,0.0,80,0.00,,---,0.00,VWS V13.01,2013-03-02 09:13:00,
2013-03-02 03:18:00,10.7,5.8,29.43,North,0,0.0,0.0,80,0.00,,---,0.00,VWS V13.01,2013-03-02 09:18:00,
2013-03-02 03:23:00,10.7,5.8,29.43,North,0,0.0,0.0,80,0.00,,---,0.00,VWS V13.01,2013-03-02 09:23:00,
2013-03-02 03:28:00,10.5,5.6,29.43,North,0,0.0,0.0,80,0.00,,---,0.00,VWS V13.01,2013-03-02 09:28:00,
2013-03-02 03:33:00,10.5,5.6,29.43,North,0,0.0,0.0,80,0.00,,---,0.00,VWS V13.01,2013-03-02 09:33:00,
2013-03-02 03:38:00,10.5,5.6,29.43,North,0,0.0,0.0,80,0.00,,---,0.00,VWS V13.01,2013-03-02 09:38:00,
2013-03-02 03:43:00,10.5,5.8,29.43,North,0,0.0,0.0,81,0.00,,---,0.00,VWS V13.01,2013-03-02 09:43:00,
2013-03-02 03:48:00,10.5,5.6,29.43,North,0,0.0,0.0,80,0.00,,---,0.00,VWS V13.01,2013-03-02 09:48:00,
2013-03-02 03:53:00,10.2,5.3,29.43,North,0,0.0,0.0,80,0.00,,---,0.00,VWS V13.01,2013-03-02 09:53:00,
2013-03-02 03:58:00,10.2,5.3,29.43,North,0,0.0,0.0,80,0.00,,---,0.00,VWS V13.01,2013-03-02 09:58:00,
2013-03-02 04:03:00,10.2,5.3,29.43,North,0,0.0,0.0,80,0.00,,---,0.00,VWS V13.01,2013-03-02 10:03:00,
2013-03-02 04:08:00,10.2,5.3,29.43,North,0,0.0,0.0,80,0.00,,---,0.00,VWS V13.01,2013-03-02 10:08:00,
2013-03-02 04:14:00,10.0,5.1,29.43,NNE,22,0.0,0.0,80,0.00,,---,0.00,VWS V13.01,2013-03-02 10:14:00,
2013-03-02 04:19:00,10.0,5.1,29.43,NNE,22,0.0,0.0,80,0.00,,---,0.00,VWS V13.01,2013-03-02 10:19:00,
2013-03-02 04:24:00,9.6,4.7,29.43,NNE,22,0.0,0.0,80,0.00,,---,0.00,VWS V13.01,2013-03-02 10:24:00,
2013-03-02 04:29:00,9.6,4.7,29.43,NNE,22,0.0,0.0,80,0.00,,---,0.00,VWS V13.01,2013-03-02 10:29:00,
2013-03-02 04:35:00,9.6,4.7,29.43,North,0,0.0,0.0,80,0.00,,---,0.00,VWS V13.01,2013-03-02 10:35:00,
2013-03-02 04:40:00,9.6,4.7,29.43,NNE,22,0.0,0.0,80,0.00,,---,0.00,VWS V13.01,2013-03-02 10:40:00,
2013-03-02 04:45:00,9.6,4.7,29.43,NNE,22,0.0,0.0,80,0.00,,---,0.00,VWS V13.01,2013-03-02 10:45:00,
2013-03-02 04:50:00,9.6,4.7,29.43,NNE,22,0.0,0.0,80,0.00,,---,0.00,VWS V13.01,2013-03-02 10:50:00,
2013-03-02 04:55:00,9.6,4.7,29.43,NNE,22,0.0,0.0,80,0.00,,---,0.00,VWS V13.01,2013-03-02 10:55:00,
2013-03-02 05:00:00,9.6,4.7,29.43,NNE,22,0.0,0.0,80,0.00,,---,0.00,VWS V13.01,2013-03-02 11:00:00,
2013-03-02 05:05:00,9.6,4.7,29.43,NNE,22,0.0,0.0,80,0.00,,---,0.00,VWS V13.01,2013-03-02 11:05:00,
2013-03-02 05:10:00,9.6,4.7,29.43,NNE,22,0.0,0.0,80,0.00,,---,0.00,VWS V13.01,2013-03-02 11:10:00,
2013-03-02 05:15:00,9.6,4.7,29.43,NNE,22,0.0,0.0,80,0.00,,---,0.00,VWS V13.01,2013-03-02 11:15:00,
2013-03-02 05:20:00,9.5,4.6,29.43,NNE,22,0.0,0.0,80,0.00,,---,0.00,VWS V13.01,2013-03-02 11:20:00,
2013-03-02 05:25:00,9.5,4.6,29.43,NNE,22,0.0,0.0,80,0.00,,---,0.00,VWS V13.01,2013-03-02 11:25:00,
2013-03-02 05:30:00,9.5,4.6,29.44,NNE,22,0.0,0.0,80,0.00,,---,0.00,VWS V13.01,2013-03-02 11:30:00,
2013-03-02 05:35:00,9.3,4.4,29.44,NNE,22,0.0,0.0,80,0.00,,---,0.00,VWS V13.01,2013-03-02 11:35:00,
2013-03-02 05:40:00,9.3,4.4,29.44,NNE,22,0.0,0.0,80,0.00,,---,0.00,VWS V13.01,2013-03-02 11:40:00,
2013-03-02 05:45:00,9.5,4.6,29.44,NNE,22,0.0,0.0,80,0.00,,---,0.00,VWS V13.01,2013-03-02 11:45:00,
2013-03-02 05:50:00,9.5,4.6,29.44,NNE,22,0.0,0.0,80,0.00,,---,0.00,VWS V13.01,2013-03-02 11:50:00,
2013-03-02 05:55:00,9.3,4.4,29.44,NNE,22,0.0,0.0,80,0.00,,---,0.00,VWS V13.01,2013-03-02 11:55:00,
2013-03-02 06:00:00,9.1,4.2,29.44,NNE,22,0.0,0.0,80,0.00,,---,0.00,VWS V13.01,2013-03-02 12:00:00,
2013-03-02 06:06:00,8.9,4.0,29.43,NNE,22,0.0,0.0,80,0.00,,---,0.00,VWS V13.01,2013-03-02 12:06:00,
2013-03-02 06:11:00,8.7,3.8,29.43,NNE,22,0.0,0.0,80,0.00,,---,0.00,VWS V13.01,2013-03-02 12:11:00,
2013-03-02 06:16:00,8.7,3.8,29.43,NNE,22,0.0,0.0,80,0.00,,---,0.00,VWS V13.01,2013-03-02 12:16:00,
2013-03-02 06:21:00,8.6,3.7,29.44,NNE,22,0.0,0.0,80,0.00,,---,0.00,VWS V13.01,2013-03-02 12:21:00,
2013-03-02 06:26:00,8.4,3.5,29.43,NNE,22,0.0,0.0,80,0.00,,---,0.00,VWS V13.01,2013-03-02 12:26:00,
2013-03-02 06:31:00,8.4,3.5,29.43,NNE,22,0.0,0.0,80,0.00,,---,0.00,VWS V13.01,2013-03-02 12:31:00,
2013-03-02 06:36:00,8.4,3.5,29.43,NNE,22,0.0,0.0,80,0.00,,---,0.00,VWS V13.01,2013-03-02 12:36:00,
2013-03-02 06:41:00,8.0,3.1,29.43,NNE,22,0.0,0.0,80,0.00,,---,0.00,VWS V13.01,2013-03-02 12:41:00,
2013-03-02 06:46:00,8.0,3.1,29.43,NNE,22,0.0,0.0,80,0.00,,---,0.00,VWS V13.01,2013-03-02 12:46:00,
2013-03-02 06:51:00,7.8,2.9,29.44,NNE,22,0.0,0.0,80,0.00,,---,0.00,VWS V13.01,2013-03-02 12:51:00,
2013-03-02 06:56:00,7.8,2.9,29.43,NNE,22,0.0,0.0,80,0.00,,---,0.00,VWS V13.01,2013-03-02 12:56:00,
2013-03-02 07:01:00,7.8,2.9,29.44,NNE,22,0.0,0.0,80,0.00,,---,0.00,VWS V13.01,2013-03-02 13:01:00,
2013-03-02 07:06:00,7.5,2.6,29.44,NNE,22,0.0,0.0,80,0.00,,---,0.00,VWS V13.01,2013-03-02 13:06:00,
2013-03-02 07:12:00,7.5,2.6,29.44,NNE,22,0.0,0.0,80,0.00,,---,0.00,VWS V13.01,2013-03-02 13:12:00,
2013-03-02 07:17:00,7.7,2.8,29.44,NNE,22,0.0,0.0,80,0.00,,---,0.00,VWS V13.01,2013-03-02 13:17:00,
2013-03-02 07:22:00,7.5,2.6,29.45,NNE,22,0.0,0.0,80,0.00,,---,0.00,VWS V13.01,2013-03-02 13:22:00,
2013-03-02 07:27:00,7.5,2.6,29.44,NNE,22,0.0,0.0,80,0.00,,---,0.00,VWS V13.01,2013-03-02 13:27:00,
2013-03-02 07:32:00,7.5,2.6,29.45,NNE,22,0.0,0.0,80,0.00,,---,0.00,VWS V13.01,2013-03-02 13:32:00,
2013-03-02 07:37:00,7.5,2.6,29.44,NNE,22,0.0,0.0,80,0.00,,---,0.00,VWS V13.01,2013-03-02 13:37:00,
2013-03-02 07:42:00,7.5,2.6,29.45,North,0,0.0,0.0,80,0.00,,---,0.00,VWS V13.01,2013-03-02 13:42:00,
2013-03-02 07:47:00,7.8,2.9,29.45,North,0,0.0,0.0,80,0.00,,---,0.00,VWS V13.01,2013-03-02 13:47:00,
2013-03-02 07:52:00,8.0,3.1,29.45,North,0,0.0,0.0,80,0.00,,---,0.00,VWS V13.01,2013-03-02 13:52:00,
2013-03-02 07:57:00,8.2,3.3,29.46,North,0,0.0,0.0,80,0.00,,---,0.00,VWS V13.01,2013-03-02 13:57:00,
2013-03-02 08:02:00,8.4,3.5,29.46,North,0,0.0,0.0,80,0.00,,---,0.00,VWS V13.01,2013-03-02 14:02:00,
2013-03-02 08:07:00,8.4,3.8,29.46,North,0,0.0,0.0,81,0.00,,---,0.00,VWS V13.01,2013-03-02 14:07:00,
2013-03-02 08:12:00,8.7,4.1,29.45,North,0,0.0,0.0,81,0.00,,---,0.00,VWS V13.01,2013-03-02 14:12:00,
2013-03-02 08:17:00,8.9,4.3,29.45,NNE,22,0.0,0.0,81,0.00,,---,0.00,VWS V13.01,2013-03-02 14:17:00,
2013-03-02 08:22:00,9.1,4.5,29.46,North,0,0.0,0.0,81,0.00,,---,0.00,VWS V13.01,2013-03-02 14:22:00,
2013-03-02 08:27:00,9.3,4.7,29.45,NNW,338,0.0,0.0,81,0.00,,---,0.00,VWS V13.01,2013-03-02 14:27:00,
2013-03-02 08:32:00,9.6,4.9,29.45,NNW,338,0.0,0.0,81,0.00,,---,0.00,VWS V13.01,2013-03-02 14:32:00,
2013-03-02 08:37:00,10.0,5.3,29.46,NNW,338,0.0,0.0,81,0.00,,---,0.00,VWS V13.01,2013-03-02 14:37:00,
2013-03-02 08:42:00,10.5,5.8,29.45,NNW,338,0.0,0.0,81,0.00,,---,0.00,VWS V13.01,2013-03-02 14:42:00,
2013-03-02 08:47:00,10.9,6.2,29.45,NNE,22,0.0,0.0,81,0.00,,---,0.00,VWS V13.01,2013-03-02 14:47:00,
2013-03-02 08:52:00,11.3,6.6,29.45,NNE,22,0.0,0.0,81,0.00,,---,0.00,VWS V13.01,2013-03-02 14:52:00,
2013-03-02 08:57:00,11.8,7.1,29.45,North,0,0.0,0.0,81,0.00,,---,0.00,VWS V13.01,2013-03-02 14:57:00,
2013-03-02 09:02:00,12.3,7.6,29.45,NNE,22,0.0,0.0,81,0.00,,---,0.00,VWS V13.01,2013-03-02 15:02:00,
2013-03-02 09:07:00,12.7,8.0,29.46,NNE,22,0.0,0.0,81,0.00,,---,0.00,VWS V13.01,2013-03-02 15:07:00,
2013-03-02 09:12:00,12.9,8.2,29.45,NNE,22,0.0,0.0,81,0.00,,---,0.00,VWS V13.01,2013-03-02 15:12:00,
2013-03-02 09:17:00,13.2,8.5,29.46,NNE,22,0.0,0.0,81,0.00,,---,0.00,VWS V13.01,2013-03-02 15:17:00,
2013-03-02 09:22:00,13.6,8.9,29.46,NNE,22,0.0,0.0,81,0.00,,---,0.00,VWS V13.01,2013-03-02 15:22:00,
2013-03-02 09:27:00,14.1,9.4,29.46,NNE,22,0.0,0.0,81,0.00,,---,0.00,VWS V13.01,2013-03-02 15:27:00,
2013-03-02 09:33:00,14.7,9.9,29.46,NNE,22,0.0,0.0,81,0.00,,---,0.00,VWS V13.01,2013-03-02 15:33:00,
2013-03-02 09:38:00,15.0,10.0,29.46,NNE,22,0.0,0.0,80,0.00,,---,0.00,VWS V13.01,2013-03-02 15:38:00,
2013-03-02 09:43:00,15.4,10.4,29.45,NNE,22,0.0,0.0,80,0.00,,---,0.00,VWS V13.01,2013-03-02 15:43:00,
2013-03-02 09:48:00,15.6,10.5,29.45,NNE,22,0.0,0.0,80,0.00,,---,0.00,VWS V13.01,2013-03-02 15:48:00,
2013-03-02 09:53:00,16.1,10.8,29.45,NNE,22,0.0,0.0,79,0.00,,---,0.00,VWS V13.01,2013-03-02 15:53:00,
2013-03-02 09:58:00,16.7,11.6,29.44,NNE,22,0.0,0.0,80,0.00,,---,0.00,VWS V13.01,2013-03-02 15:58:00,
2013-03-02 10:03:00,16.8,11.7,29.44,NNE,22,0.0,0.0,80,0.00,,---,0.00,VWS V13.01,2013-03-02 16:03:00,
2013-03-02 10:08:00,17.4,12.0,29.44,NNE,22,0.0,0.0,79,0.00,,---,0.00,VWS V13.01,2013-03-02 16:08:00,
2013-03-02 10:13:00,17.4,12.0,29.44,North,0,0.0,0.0,79,0.00,,---,0.00,VWS V13.01,2013-03-02 16:13:00,
2013-03-02 10:18:00,17.4,12.0,29.44,North,0,0.0,0.0,79,0.00,,---,0.00,VWS V13.01,2013-03-02 16:18:00,
2013-03-02 10:23:00,18.3,12.9,29.45,North,0,0.0,0.0,79,0.00,,---,0.00,VWS V13.01,2013-03-02 16:23:00,
2013-03-02 10:28:00,18.6,12.9,29.44,North,0,0.0,0.0,78,0.00,,---,0.00,VWS V13.01,2013-03-02 16:28:00,
2013-03-02 10:33:00,19.2,13.5,29.44,North,0,0.0,0.0,78,0.00,,---,0.00,VWS V13.01,2013-03-02 16:33:00,
2013-03-02 10:38:00,19.5,13.8,29.44,North,0,0.0,0.0,78,0.00,,---,0.00,VWS V13.01,2013-03-02 16:38:00,
2013-03-02 10:43:00,19.9,13.9,29.44,North,0,0.0,0.0,77,0.00,,---,0.00,VWS V13.01,2013-03-02 16:43:00,
2013-03-02 10:48:00,20.3,14.3,29.44,North,0,0.0,0.0,77,0.00,,---,0.00,VWS V13.01,2013-03-02 16:48:00,
2013-03-02 10:53:00,20.8,14.4,29.43,North,0,0.0,0.0,76,0.00,,---,0.00,VWS V13.01,2013-03-02 16:53:00,
2013-03-02 10:58:00,21.0,14.6,29.43,North,0,0.0,0.0,76,0.00,,---,0.00,VWS V13.01,2013-03-02 16:58:00,
2013-03-02 11:03:00,21.5,15.1,29.43,ENE,68,0.0,0.0,76,0.00,,---,0.00,VWS V13.01,2013-03-02 17:03:00,
2013-03-02 11:08:00,22.4,15.7,29.43,ENE,68,0.0,0.0,75,0.00,,---,0.00,VWS V13.01,2013-03-02 17:08:00,
2013-03-02 11:13:00,23.0,16.3,29.43,ENE,68,0.0,0.0,75,0.00,,---,0.00,VWS V13.01,2013-03-02 17:13:00,
2013-03-02 11:18:00,23.5,16.5,29.43,NE,45,0.0,0.0,74,0.00,,---,0.00,VWS V13.01,2013-03-02 17:18:00,
2013-03-02 11:23:00,23.5,16.1,29.43,NE,45,0.0,0.0,73,0.00,,---,0.00,VWS V13.01,2013-03-02 17:23:00,
2013-03-02 11:28:00,23.5,16.1,29.43,NNW,338,0.0,0.0,73,0.00,,---,0.00,VWS V13.01,2013-03-02 17:28:00,
2013-03-02 11:33:00,23.0,15.3,29.43,NNE,22,0.0,0.0,72,0.00,,---,0.00,VWS V13.01,2013-03-02 17:33:00,
2013-03-02 11:38:00,22.8,15.1,29.43,NNE,22,0.0,0.0,72,0.00,,---,0.00,VWS V13.01,2013-03-02 17:38:00,
2013-03-02 11:43:00,22.8,15.1,29.42,NNW,338,0.0,4.0,72,0.00,,---,0.00,VWS V13.01,2013-03-02 17:43:00,
2013-03-02 11:48:00,23.1,15.4,29.43,NNW,338,0.0,0.0,72,0.00,,---,0.00,VWS V13.01,2013-03-02 17:48:00,
2013-03-02 11:53:00,23.3,15.6,29.42,NNW,338,0.0,0.0,72,0.00,,---,0.00,VWS V13.01,2013-03-02 17:53:00,
2013-03-02 11:58:00,24.0,16.3,29.42,NW,315,0.0,7.0,72,0.00,,---,0.00,VWS V13.01,2013-03-02 17:58:00,
2013-03-02 12:03:00,24.4,16.4,29.43,NW,315,0.0,0.0,71,0.00,,---,0.00,VWS V13.01,2013-03-02 18:03:00,
2013-03-02 12:08:00,24.6,16.5,29.42,NW,315,0.0,0.0,71,0.00,,---,0.00,VWS V13.01,2013-03-02 18:08:00,
2013-03-02 12:13:00,24.6,16.5,29.42,NW,315,0.0,0.0,71,0.00,,---,0.00,VWS V13.01,2013-03-02 18:13:00,
2013-03-02 12:18:00,24.9,16.8,29.42,NNE,22,0.0,0.0,71,0.00,,---,0.00,VWS V13.01,2013-03-02 18:18:00,
2013-03-02 12:23:00,25.3,16.9,29.42,NNE,22,0.0,0.0,70,0.00,,---,0.00,VWS V13.01,2013-03-02 18:23:00,
2013-03-02 12:28:00,26.0,17.6,29.42,NNE,22,0.0,0.0,70,0.00,,---,0.00,VWS V13.01,2013-03-02 18:28:00,
2013-03-02 12:33:00,26.4,18.0,29.42,NNE,22,0.0,0.0,70,0.00,,---,0.00,VWS V13.01,2013-03-02 18:33:00,
2013-03-02 12:38:00,26.4,17.6,29.41,NNE,22,0.0,0.0,69,0.00,,---,0.00,VWS V13.01,2013-03-02 18:38:00,
2013-03-02 12:43:00,26.7,17.9,29.41,NNW,338,0.0,0.0,69,0.00,,---,0.00,VWS V13.01,2013-03-02 18:43:00,
2013-03-02 12:48:00,26.6,17.5,29.41,NNW,338,0.0,0.0,68,0.00,,---,0.00,VWS V13.01,2013-03-02 18:48:00,
2013-03-02 12:53:00,26.4,17.6,29.41,North,0,0.0,0.0,69,0.00,,---,0.00,VWS V13.01,2013-03-02 18:53:00,
2013-03-02 12:58:00,26.6,17.5,29.40,NNE,22,0.0,0.0,68,0.00,,---,0.00,VWS V13.01,2013-03-02 18:58:00,
2013-03-02 13:03:00,26.7,17.2,29.41,NNW,338,0.0,0.0,67,0.00,,---,0.00,VWS V13.01,2013-03-02 19:03:00,
2013-03-02 13:08:00,26.9,17.4,29.40,NW,315,12.0,12.0,67,0.00,,---,0.00,VWS V13.01,2013-03-02 19:08:00,
2013-03-02 13:13:00,27.1,17.6,29.39,North,0,0.0,0.0,67,0.00,,---,0.00,VWS V13.01,2013-03-02 19:13:00,
2013-03-02 13:18:00,27.3,17.8,29.39,NNE,22,0.0,0.0,67,0.00,,---,0.00,VWS V13.01,2013-03-02 19:18:00,
2013-03-02 13:23:00,28.0,18.5,29.40,North,0,0.0,0.0,67,0.00,,---,0.00,VWS V13.01,2013-03-02 19:23:00,
2013-03-02 13:28:00,28.5,19.0,29.39,NNE,22,0.0,4.0,67,0.00,,---,0.00,VWS V13.01,2013-03-02 19:28:00,
2013-03-02 13:33:00,28.9,19.0,29.38,NNE,22,0.0,0.0,66,0.00,,---,0.00,VWS V13.01,2013-03-02 19:33:00,
2013-03-02 13:38:00,28.9,18.6,29.39,North,0,2.6,2.6,65,0.00,,---,0.00,VWS V13.01,2013-03-02 19:38:00,
2013-03-02 13:43:00,28.2,18.0,29.39,NNE,22,0.0,0.0,65,0.00,,---,0.00,VWS V13.01,2013-03-02 19:43:00,
2013-03-02 13:48:00,28.2,18.0,29.39,North,0,0.0,0.0,65,0.00,,---,0.00,VWS V13.01,2013-03-02 19:48:00,
2013-03-02 13:54:00,28.9,18.6,29.39,NNE,22,0.0,0.0,65,0.00,,---,0.00,VWS V13.01,2013-03-02 19:54:00,
2013-03-02 13:59:00,29.3,19.0,29.38,NNE,22,0.0,0.0,65,0.00,,---,0.00,VWS V13.01,2013-03-02 19:59:00,
2013-03-02 14:04:00,29.3,18.6,29.38,NNE,22,0.0,0.0,64,0.00,,---,0.00,VWS V13.01,2013-03-02 20:04:00,
2013-03-02 14:09:00,29.3,18.3,29.38,NNE,22,0.0,0.0,63,0.00,,---,0.00,VWS V13.01,2013-03-02 20:09:00,
2013-03-02 14:14:00,29.3,18.3,29.38,NNE,22,0.0,0.0,63,0.00,,---,0.00,VWS V13.01,2013-03-02 20:14:00,
2013-03-02 14:19:00,29.6,18.6,29.38,North,0,0.0,0.0,63,0.00,,---,0.00,VWS V13.01,2013-03-02 20:19:00,
2013-03-02 14:24:00,29.4,17.6,29.38,NNE,22,0.0,0.0,61,0.00,,---,0.00,VWS V13.01,2013-03-02 20:24:00,
2013-03-02 14:29:00,29.1,17.3,29.37,NNW,338,0.0,0.0,61,0.00,,---,0.00,VWS V13.01,2013-03-02 20:29:00,
2013-03-02 14:34:00,29.1,17.7,29.38,NNE,22,0.0,3.4,62,0.00,,---,0.00,VWS V13.01,2013-03-02 20:34:00,
2013-03-02 14:39:00,28.9,17.5,29.38,North,0,0.0,0.0,62,0.00,,---,0.00,VWS V13.01,2013-03-02 20:39:00,
2013-03-02 14:44:00,29.1,17.7,29.38,North,0,0.0,0.0,62,0.00,,---,0.00,VWS V13.01,2013-03-02 20:44:00,
2013-03-02 14:49:00,29.1,17.7,29.38,NNW,338,0.0,0.0,62,0.00,,---,0.00,VWS V13.01,2013-03-02 20:49:00,
2013-03-02 14:54:00,28.9,17.2,29.38,NNE,22,0.0,0.0,61,0.00,,---,0.00,VWS V13.01,2013-03-02 20:54:00,
2013-03-02 14:59:00,28.9,17.5,29.38,NNE,22,0.0,0.0,62,0.00,,---,0.00,VWS V13.01,2013-03-02 20:59:00,
2013-03-02 15:04:00,28.9,17.5,29.38,North,0,0.0,0.0,62,0.00,,---,0.00,VWS V13.01,2013-03-02 21:04:00,
2013-03-02 15:10:00,28.5,16.4,29.38,North,0,0.0,0.0,60,0.00,,---,0.00,VWS V13.01,2013-03-02 21:10:00,
2013-03-02 15:15:00,28.2,16.1,29.37,NNW,338,0.0,0.0,60,0.00,,---,0.00,VWS V13.01,2013-03-02 21:15:00,
2013-03-02 15:21:00,28.2,16.1,29.38,North,0,0.0,0.0,60,0.00,,---,0.00,VWS V13.01,2013-03-02 21:21:00,
2013-03-02 15:26:00,28.0,15.5,29.37,NNW,338,0.0,0.0,59,0.00,,---,0.00,VWS V13.01,2013-03-02 21:26:00,
2013-03-02 15:31:00,28.0,15.5,29.38,North,0,0.0,0.0,59,0.00,,---,0.00,VWS V13.01,2013-03-02 21:31:00,
2013-03-02 15:36:00,28.2,15.7,29.37,North,0,0.0,0.0,59,0.00,,---,0.00,VWS V13.01,2013-03-02 21:36:00,
2013-03-02 15:42:00,28.0,15.5,29.38,North,0,0.0,0.0,59,0.00,,---,0.00,VWS V13.01,2013-03-02 21:42:00,
2013-03-02 15:47:00,27.8,15.7,29.37,NNW,338,0.0,0.0,60,0.00,,---,0.00,VWS V13.01,2013-03-02 21:47:00,
2013-03-02 15:52:00,28.0,15.9,29.38,NE,45,3.0,3.0,60,0.00,,---,0.00,VWS V13.01,2013-03-02 21:52:00,
2013-03-02 15:58:00,28.2,16.1,29.37,NNE,22,3.4,3.4,60,0.00,,---,0.00,VWS V13.01,2013-03-02 21:58:00,
2013-03-02 16:03:00,28.2,16.1,29.37,NNE,22,0.0,0.0,60,0.00,,---,0.00,VWS V13.01,2013-03-02 22:03:00,
2013-03-02 16:08:00,28.2,16.1,29.37,NNE,22,0.0,7.6,60,0.00,,---,0.00,VWS V13.01,2013-03-02 22:08:00,
2013-03-02 16:14:00,28.4,16.3,29.37,NNE,22,0.0,0.0,60,0.00,,---,0.00,VWS V13.01,2013-03-02 22:14:00,
2013-03-02 16:19:00,28.5,16.4,29.37,NE,45,0.0,0.0,60,0.00,,---,0.00,VWS V13.01,2013-03-02 22:19:00,
2013-03-02 16:24:00,28.5,16.0,29.37,NE,45,0.0,0.0,59,0.00,,---,0.00,VWS V13.01,2013-03-02 22:24:00,
2013-03-02 16:29:00,28.5,16.0,29.37,NNE,22,4.8,4.8,59,0.00,,---,0.00,VWS V13.01,2013-03-02 22:29:00,
2013-03-02 16:35:00,28.2,15.7,29.37,NNE,22,0.0,0.0,59,0.00,,---,0.00,VWS V13.01,2013-03-02 22:35:00,
2013-03-02 16:40:00,28.5,16.0,29.37,NNE,22,0.0,0.0,59,0.00,,---,0.00,VWS V13.01,2013-03-02 22:40:00,
2013-03-02 16:45:00,28.2,15.7,29.36,North,0,0.0,0.0,59,0.00,,---,0.00,VWS V13.01,2013-03-02 22:45:00,
2013-03-02 16:50:00,28.5,16.4,29.36,North,0,0.0,0.0,60,0.00,,---,0.00,VWS V13.01,2013-03-02 22:50:00,
2013-03-02 16:55:00,28.5,16.4,29.36,NNE,22,0.0,0.0,60,0.00,,---,0.00,VWS V13.01,2013-03-02 22:55:00,
2013-03-02 17:01:00,28.2,15.7,29.36,NNE,22,0.0,0.0,59,0.00,,---,0.00,VWS V13.01,2013-03-02 23:01:00,
2013-03-02 17:06:00,28.0,15.5,29.36,NNE,22,0.0,0.0,59,0.00,,---,0.00,VWS V13.01,2013-03-02 23:06:00,
2013-03-02 17:11:00,27.5,15.4,29.36,NNE,22,0.0,0.0,60,0.00,,---,0.00,VWS V13.01,2013-03-02 23:11:00,
2013-03-02 17:16:00,27.6,15.6,29.36,NNE,22,0.0,0.0,60,0.00,,---,0.00,VWS V13.01,2013-03-02 23:16:00,
2013-03-02 17:21:00,28.0,16.3,29.36,NNE,22,0.0,0.0,61,0.00,,---,0.00,VWS V13.01,2013-03-02 23:21:00,
2013-03-02 17:26:00,28.0,15.9,29.36,NNE,22,0.0,0.0,60,0.00,,---,0.00,VWS V13.01,2013-03-02 23:26:00,
2013-03-02 17:31:00,27.6,15.6,29.35,NNE,22,0.0,0.0,60,0.00,,---,0.00,VWS V13.01,2013-03-02 23:31:00,
2013-03-02 17:36:00,27.1,15.4,29.35,NNE,22,0.0,0.0,61,0.00,,---,0.00,VWS V13.01,2013-03-02 23:36:00,
2013-03-02 17:41:00,26.9,15.3,29.36,NNE,22,0.0,0.0,61,0.00,,---,0.00,VWS V13.01,2013-03-02 23:41:00,
2013-03-02 17:46:00,26.6,15.0,29.36,NNE,22,0.0,0.0,61,0.00,,---,0.00,VWS V13.01,2013-03-02 23:46:00,
2013-03-02 17:51:00,26.2,15.0,29.36,NNE,22,0.0,0.0,62,0.00,,---,0.00,VWS V13.01,2013-03-02 23:51:00,
2013-03-02 17:56:00,25.8,14.6,29.36,NNE,22,0.0,0.0,62,0.00,,---,0.00,VWS V13.01,2013-03-02 23:56:00,
2013-03-02 18:01:00,25.5,14.3,29.36,NNE,22,0.0,0.0,62,0.00,,---,0.00,VWS V13.01,2013-03-03 00:01:00,
2013-03-02 18:06:00,25.1,13.9,29.36,NNE,22,0.0,0.0,62,0.00,,---,0.00,VWS V13.01,2013-03-03 00:06:00,
2013-03-02 18:11:00,24.9,14.1,29.36,NNE,22,0.0,0.0,63,0.00,,---,0.00,VWS V13.01,2013-03-03 00:11:00,
2013-03-02 18:16:00,24.6,13.8,29.36,NNE,22,0.0,0.0,63,0.00,,---,0.00,VWS V13.01,2013-03-03 00:16:00,
2013-03-02 18:21:00,24.4,13.6,29.36,NNE,22,0.0,0.0,63,0.00,,---,0.00,VWS V13.01,2013-03-03 00:21:00,
2013-03-02 18:26:00,24.0,13.2,29.36,NNE,22,0.0,0.0,63,0.00,,---,0.00,VWS V13.01,2013-03-03 00:26:00,
2013-03-02 18:31:00,23.9,13.1,29.35,NNE,22,0.0,0.0,63,0.00,,---,0.00,VWS V13.01,2013-03-03 00:31:00,
2013-03-02 18:36:00,23.5,13.1,29.36,NNE,22,0.0,0.0,64,0.00,,---,0.00,VWS V13.01,2013-03-03 00:36:00,
2013-03-02 18:41:00,23.3,12.9,29.35,NNE,22,0.0,0.0,64,0.00,,---,0.00,VWS V13.01,2013-03-03 00:41:00,
2013-03-02 18:46:00,23.1,12.8,29.36,NNE,22,0.0,0.0,64,0.00,,---,0.00,VWS V13.01,2013-03-03 00:46:00,
2013-03-02 18:51:00,22.8,12.5,29.35,NNE,22,0.0,0.0,64,0.00,,---,0.00,VWS V13.01,2013-03-03 00:51:00,
2013-03-02 18:56:00,22.8,12.5,29.35,NNE,22,0.0,0.0,64,0.00,,---,0.00,VWS V13.01,2013-03-03 00:56:00,
2013-03-02 19:01:00,22.6,12.3,29.36,NNE,22,0.0,0.0,64,0.00,,---,0.00,VWS V13.01,2013-03-03 01:01:00,
2013-03-02 19:07:00,22.2,12.2,29.36,NNE,22,0.0,0.0,65,0.00,,---,0.00,VWS V13.01,2013-03-03 01:07:00,
2013-03-02 19:12:00,21.9,12.0,29.35,NNE,22,0.0,0.0,65,0.00,,---,0.00,VWS V13.01,2013-03-03 01:12:00,
2013-03-02 19:18:00,21.7,11.8,29.36,NNE,22,0.0,0.0,65,0.00,,---,0.00,VWS V13.01,2013-03-03 01:18:00,
2013-03-02 19:23:00,21.5,11.6,29.36,NNE,22,0.0,0.0,65,0.00,,---,0.00,VWS V13.01,2013-03-03 01:23:00,
2013-03-02 19:28:00,21.3,11.7,29.35,NNE,22,0.0,0.0,66,0.00,,---,0.00,VWS V13.01,2013-03-03 01:28:00,
2013-03-02 19:33:00,21.2,11.6,29.36,NNE,22,0.0,0.0,66,0.00,,---,0.00,VWS V13.01,2013-03-03 01:33:00,
2013-03-02 19:38:00,21.0,11.4,29.36,NNE,22,0.0,0.0,66,0.00,,---,0.00,VWS V13.01,2013-03-03 01:38:00,
2013-03-02 19:43:00,20.8,11.2,29.35,NNE,22,0.0,0.0,66,0.00,,---,0.00,VWS V13.01,2013-03-03 01:43:00,
2013-03-02 19:48:00,20.4,11.2,29.36,NNE,22,0.0,0.0,67,0.00,,---,0.00,VWS V13.01,2013-03-03 01:48:00,
2013-03-02 19:53:00,20.1,10.9,29.35,NNE,22,0.0,0.0,67,0.00,,---,0.00,VWS V13.01,2013-03-03 01:53:00,
2013-03-02 19:58:00,19.9,10.7,29.35,NNE,22,0.0,0.0,67,0.00,,---,0.00,VWS V13.01,2013-03-03 01:58:00,
2013-03-02 20:03:00,19.9,10.7,29.34,NNE,22,0.0,0.0,67,0.00,,---,0.00,VWS V13.01,2013-03-03 02:03:00,
2013-03-02 20:08:00,19.5,10.7,29.35,NNE,22,0.0,0.0,68,0.00,,---,0.00,VWS V13.01,2013-03-03 02:08:00,
2013-03-02 20:13:00,19.5,10.7,29.35,NNE,22,0.0,0.0,68,0.00,,---,0.00,VWS V13.01,2013-03-03 02:13:00,
2013-03-02 20:18:00,19.4,10.6,29.36,NNE,22,0.0,0.0,68,0.00,,---,0.00,VWS V13.01,2013-03-03 02:18:00,
2013-03-02 20:23:00,19.2,10.7,29.35,NNE,22,0.0,0.0,69,0.00,,---,0.00,VWS V13.01,2013-03-03 02:23:00,
2013-03-02 20:28:00,19.2,10.7,29.35,NNE,22,0.0,0.0,69,0.00,,---,0.00,VWS V13.01,2013-03-03 02:28:00,
2013-03-02 20:33:00,19.0,10.5,29.35,NNE,22,0.0,0.0,69,0.00,,---,0.00,VWS V13.01,2013-03-03 02:33:00,
2013-03-02 20:38:00,18.8,10.3,29.36,NNE,22,0.0,0.0,69,0.00,,---,0.00,VWS V13.01,2013-03-03 02:38:00,
2013-03-02 20:43:00,18.8,10.3,29.36,NNE,22,0.0,0.0,69,0.00,,---,0.00,VWS V13.01,2013-03-03 02:43:00,
2013-03-02 20:48:00,18.8,10.3,29.35,NNE,22,0.0,0.0,69,0.00,,---,0.00,VWS V13.01,2013-03-03 02:48:00,
2013-03-02 20:53:00,18.6,10.1,29.36,NNE,22,0.0,0.0,69,0.00,,---,0.00,VWS V13.01,2013-03-03 02:53:00,
2013-03-02 20:58:00,18.6,10.1,29.36,NNE,22,0.0,0.0,69,0.00,,---,0.00,VWS V13.01,2013-03-03 02:58:00,
2013-03-02 21:03:00,18.6,10.5,29.35,NNE,22,0.0,0.0,70,0.00,,---,0.00,VWS V13.01,2013-03-03 03:03:00,
2013-03-02 21:08:00,18.6,10.5,29.35,NNE,22,0.0,0.0,70,0.00,,---,0.00,VWS V13.01,2013-03-03 03:08:00,
2013-03-02 21:13:00,18.6,10.5,29.35,NNE,22,0.0,0.0,70,0.00,,---,0.00,VWS V13.01,2013-03-03 03:13:00,
2013-03-02 21:18:00,18.6,10.5,29.36,NNE,22,0.0,0.0,70,0.00,,---,0.00,VWS V13.01,2013-03-03 03:18:00,
2013-03-02 21:23:00,18.6,10.5,29.36,NNE,22,0.0,0.0,70,0.00,,---,0.00,VWS V13.01,2013-03-03 03:23:00,
2013-03-02 21:28:00,18.6,10.5,29.36,NNE,22,0.0,0.0,70,0.00,,---,0.00,VWS V13.01,2013-03-03 03:28:00,
2013-03-02 21:33:00,18.8,10.6,29.36,NNE,22,0.0,0.0,70,0.00,,---,0.00,VWS V13.01,2013-03-03 03:33:00,
2013-03-02 21:38:00,19.0,11.2,29.36,NNE,22,0.0,0.0,71,0.00,,---,0.00,VWS V13.01,2013-03-03 03:38:00,
2013-03-02 21:43:00,19.2,11.4,29.36,NNE,22,0.0,0.0,71,0.00,,---,0.00,VWS V13.01,2013-03-03 03:43:00,
2013-03-02 21:48:00,19.2,11.4,29.36,NNE,22,0.0,0.0,71,0.00,,---,0.00,VWS V13.01,2013-03-03 03:48:00,
2013-03-02 21:53:00,19.2,11.4,29.35,NNE,22,0.0,0.0,71,0.00,,---,0.00,VWS V13.01,2013-03-03 03:53:00,
2013-03-02 21:58:00,19.4,11.6,29.35,NNE,22,0.0,0.0,71,0.00,,---,0.00,VWS V13.01,2013-03-03 03:58:00,
2013-03-02 22:03:00,19.5,11.6,29.34,NNE,22,0.0,0.0,71,0.00,,---,0.00,VWS V13.01,2013-03-03 04:03:00,
2013-03-02 22:08:00,19.5,11.6,29.34,NNE,22,0.0,0.0,71,0.00,,---,0.00,VWS V13.01,2013-03-03 04:08:00,
2013-03-02 22:13:00,19.5,11.6,29.34,NNE,22,0.0,0.0,71,0.00,,---,0.00,VWS V13.01,2013-03-03 04:13:00,
2013-03-02 22:18:00,19.5,11.6,29.34,NNE,22,0.0,0.0,71,0.00,,---,0.00,VWS V13.01,2013-03-03 04:18:00,
2013-03-02 22:23:00,19.5,11.6,29.34,NNE,22,0.0,0.0,71,0.00,,---,0.00,VWS V13.01,2013-03-03 04:23:00,
2013-03-02 22:28:00,19.7,11.8,29.34,NNE,22,0.0,0.0,71,0.00,,---,0.00,VWS V13.01,2013-03-03 04:28:00,
2013-03-02 22:33:00,19.9,12.0,29.34,NNE,22,0.0,0.0,71,0.00,,---,0.00,VWS V13.01,2013-03-03 04:33:00,
2013-03-02 22:38:00,19.9,12.0,29.34,NNE,22,0.0,0.0,71,0.00,,---,0.00,VWS V13.01,2013-03-03 04:38:00,
2013-03-02 22:43:00,19.9,12.0,29.33,NNE,22,0.0,0.0,71,0.00,,---,0.00,VWS V13.01,2013-03-03 04:43:00,
2013-03-02 22:48:00,19.9,12.0,29.33,NNE,22,0.0,0.0,71,0.00,,---,0.00,VWS V13.01,2013-03-03 04:48:00,
2013-03-02 22:53:00,20.1,12.2,29.33,NNE,22,0.0,0.0,71,0.00,,---,0.00,VWS V13.01,2013-03-03 04:53:00,
2013-03-02 22:58:00,20.1,12.2,29.33,NNE,22,0.0,0.0,71,0.00,,---,0.00,VWS V13.01,2013-03-03 04:58:00,
2013-03-02 23:00:00,20.1,12.2,29.32,NNE,22,0.0,0.0,71,0.00,,---,0.00,VWS V13.01,2013-03-03 05:00:00,
2013-03-02 23:01:00,20.1,12.2,29.33,NNE,22,0.0,0.0,71,0.00,,---,0.00,VWS V13.01,2013-03-03 05:01:00,
2013-03-02 23:02:00,20.1,12.2,29.33,NNE,22,0.0,0.0,71,0.00,,---,0.00,VWS V13.01,2013-03-03 05:02:00,
2013-03-02 23:05:00,20.3,12.4,29.32,NNE,22,0.0,0.0,71,0.00,,---,0.00,VWS V13.01,2013-03-03 05:05:00,
2013-03-02 23:11:00,20.3,12.4,29.32,NNE,22,0.0,0.0,71,0.00,,---,0.00,VWS V13.01,2013-03-03 05:11:00,
2013-03-02 23:17:00,20.4,12.5,29.32,NNE,22,0.0,0.0,71,0.00,,---,0.00,VWS V13.01,2013-03-03 05:17:00,
2013-03-02 23:22:00,20.4,12.5,29.31,NNE,22,0.0,0.0,71,0.00,,---,0.00,VWS V13.01,2013-03-03 05:22:00,
2013-03-02 23:27:00,20.4,12.5,29.31,NNE,22,0.0,0.0,71,0.00,,---,0.00,VWS V13.01,2013-03-03 05:27:00,
2013-03-02 23:32:00,20.4,12.5,29.31,NNE,22,0.0,0.0,71,0.00,,---,0.00,VWS V13.01,2013-03-03 05:32:00,
2013-03-02 23:37:00,20.4,12.5,29.31,NNE,22,0.0,0.0,71,0.00,,---,0.00,VWS V13.01,2013-03-03 05:37:00,
2013-03-02 23:42:00,20.4,12.5,29.31,NNE,22,0.0,0.0,71,0.00,,---,0.00,VWS V13.01,2013-03-03 05:42:00,
2013-03-02 23:47:00,20.4,12.5,29.31,NNE,22,0.0,0.0,71,0.00,,---,0.00,VWS V13.01,2013-03-03 05:47:00,
2013-03-02 23:52:00,20.4,12.5,29.31,NNE,22,0.0,0.0,71,0.00,,---,0.00,VWS V13.01,2013-03-03 05:52:00,
2013-03-02 23:57:00,20.4,12.5,29.32,NNE,22,0.0,0.0,71,0.00,,---,0.00,VWS V13.01,2013-03-03 05:57:00,